Regional Weather Roundup
Issued by NWS

Home | Current Version | Previous Version | Text Only | Print | Product List | Glossary Off
Versions: 1 2 3 4 5 6 7 8 9 10 11 12 13 14 15 16 17 18 19 20 21 22 23 24 25 26 27

000
ASUS45 KBOI 181210
RWRID

IDAHO REGIONAL WEATHER ROUNDUP
NATIONAL WEATHER SERVICE BOISE ID
500 AM MST SUN FEB 18 2018

NOTE: "FAIR" INDICATES FEW OR NO CLOUDS BELOW 12000 FEET
WITH NO SIGNIFICANT WEATHER AND/OR OBSTRUCTIONS TO VISIBILITY

IDZ012-014-181300-
SOUTHWEST IDAHO


CITY           SKY/WX    TMP DP  RH WIND       PRES   REMARKS
BOISE          CLOUDY    40  28  62 SW3       29.62S
CALDWELL       MOCLDY    41  28  60 SW17      29.62S
MOUNTAIN HOME  CLOUDY    37  37 100 NW8       29.61S WCI  31
$$

IDZ016-017-181300-
SOUTHCENTRAL IDAHO


CITY           SKY/WX    TMP DP  RH WIND       PRES   REMARKS
BURLEY         LGT SNOW  32  32 100 W7        29.62R VSB 1   WCI  26
JEROME         LGT SNOW  33  32  96 SW9       29.60F FOG     WCI  25
TWIN FALLS     LGT SNOW  32  32 100 W13       29.63S VSB 1   WCI  22
$$

IDZ019>023-181300-
SOUTHEAST IDAHO


CITY           SKY/WX    TMP DP  RH WIND       PRES   REMARKS
IDAHO FALLS    CLOUDY    35  32  88 SW20G30   29.51R WCI  24
POCATELLO      LGT RAIN  36  35  96 SW23      29.57R WCI  24
REXBURG        CLOUDY    36  31  82 SW20G30   29.45S WCI  25
$$

IDZ006-010-011-018-031-032-181300-
CENTRAL IDAHO MOUNTAINS


CITY           SKY/WX    TMP DP  RH WIND       PRES   REMARKS
MCCALL         MOCLDY    28  19  69 W9        29.50S WCI  19
HAILEY         CLOUDY    36  21  55 W6        29.53S WCI  31
STANLEY          N/A     26  24  92 CALM      29.48F
SALMON         LGT SNOW  30  30 100 SE3       29.46F FOG
CHALLIS        LGT SNOW  30  29  96 CALM      29.47S FOG
$$

IDZ002-004-006-007-026-181300-
NORTHERN IDAHO


CITY           SKY/WX    TMP DP  RH WIND       PRES   REMARKS
LEWISTON       PTCLDY    39  27  62 S6        29.55S WCI  35
LOWELL           N/A     33  32  96 CALM      29.61R
COEUR D`ALENE  LGT SNOW  21  19  93 N21       29.53R FOG     WCI   6
MULLAN PASS    LGT SNOW  20  19  96 SW8G17    29.36F FOG     WCI  10
$$




USA.gov is the U.S. government's official web portal to all federal, state and local government web resources and services.